Main page
METAR-TAF:

METAR-TAF

Airports :

RAF Kinloss

Kinloss, Scotland

latitude: 57-39N, longitude: 003-34W, elevation: 7 m

Current weather observation

The report was made 49 minutes ago, at 23:50 UTC
Wind 6 kt from the South/Southwest
Temperature 9°C
Humidity 93%
Pressure 1027 hPa
Visibility 10 km or more

METAR: EGQK 232350Z AUTO 21006KT 9999 NCD 09/08 Q1027

Time: 01:39 (00:39 UTC)


TAF: missing

Weather observations and forecasts of more than 4000 airports (METAR and TAF reports).

The available stations are represented by yellow and red dots on the map.

Hover mouse over dot to see the name of the station.

Then click to see weather observations and forecasts.

To change the map : click on the green buttons with a black cross to zoom in, on the green button with a dash to zoom out, or on the green arrows for adjacent maps.


METAR-TAF: